[[{"header":{"parameterUnit":"m.s-1","parameterCategory":1,"la1":30.2991,"la2":30.254,"lo1":-89.0895,"lo2":-89.0444,"dy":0.0017,"dx":0.0017,"nx":28,"ny":28,"refTime":"2023-08-29T09:00:00:Z","depth":0,"parameterNumber":2,"parameterNumberName":"U-component_of_WINDS"},"data":[0,0,0,0,0,0,0,0,0,0,0,0,0,0,0,0,0,0,0,0,0,0,0,0,0,0,0,0,0,0,0,0,0,0,0,0,0,0,0,0,0,0,0,0,0,0,0,0,0,0,0,0,0,0,0,0,0,0,-0.5476,-0.5476,0,-0.5511,-0.5511,-0.5512,-0.5531,-0.5531,-0.5531,-0.5531,-0.5566,-0.5567,-0.5568,0,0,0,0,0,0,0,0,0,0,0,0,0,-0.5423,-0.5424,-0.5476,-0.5476,-0.5477,-0.5511,-0.5511,-0.5512,-0.5531,-0.5531,-0.5531,-0.5531,-0.5566,-0.5567,-0.5568,0,0,0,0,0,0,0,0,0,0,0,0,0,-0.5451,-0.5424,-0.5476,-0.549,-0.5492,-0.5511,-0.5511,-0.5512,-0.5531,-0.5531,-0.5531,-0.5531,-0.5566,-0.5567,-0.5569,-0.5576,0,0,-0.5573,-0.5573,0,0,0,0,0,0,0,0,-0.5449,-0.5453,-0.5488,-0.5489,-0.5491,-0.5516,-0.5506,-0.5533,-0.5531,-0.5516,-0.5531,-0.5531,-0.555,-0.5552,-0.5559,-0.5578,-0.5579,-0.5573,-0.5574,-0.5574,-0.5575,0,0,0,0,0,0,0,-0.5447,-0.5451,-0.549,-0.5488,-0.549,-0.5494,-0.5498,-0.5511,-0.5532,-0.5517,-0.5519,-0.5522,-0.5551,-0.5558,-0.556,-0.558,-0.5573,-0.5574,-0.5575,-0.5575,-0.5604,-0.5603,0,0,0,0,0,0,-0.5443,-0.5449,-0.5489,-0.5491,-0.547,-0.5495,-0.55,-0.5508,-0.5532,-0.5536,-0.5522,-0.5523,-0.5555,-0.5558,-0.5561,-0.557,-0.5574,-0.5576,-0.5576,-0.5604,-0.5604,-0.5603,0,0,0,0,0,0,-0.5442,-0.5446,-0.5487,-0.547,-0.5476,-0.5496,-0.5505,-0.5509,-0.5516,-0.5536,-0.554,-0.5526,-0.5555,-0.5559,-0.5572,-0.5572,-0.5576,-0.5577,-0.5604,-0.5604,-0.5603,-0.5589,0,0,0,0,0,0,-0.544,-0.5446,-0.545,-0.547,-0.5477,-0.5498,-0.5506,-0.551,-0.5518,-0.552,-0.554,-0.5543,-0.5556,-0.5569,-0.5573,-0.5574,-0.5578,-0.5604,-0.5604,-0.5604,-0.559,-0.5588,-0.5587,0,0,0,0,0,-0.5438,-0.5444,-0.545,-0.5454,-0.5482,-0.5498,-0.5501,-0.5515,-0.5518,-0.5521,-0.5534,-0.5543,-0.5571,-0.5571,-0.5575,-0.5576,-0.5604,-0.5604,-0.5604,-0.559,-0.5589,-0.5587,0,0,0,0,0,0,-0.5424,-0.5448,-0.5454,-0.5467,-0.548,-0.5501,-0.5506,-0.5514,-0.5526,-0.5527,-0.5544,-0.5548,-0.5559,-0.5568,-0.5567,-0.5583,-0.5588,-0.5589,-0.5576,-0.5575,-0.5574,-0.5572,-0.558,0,0,0,0,0,-0.5422,-0.5433,-0.5453,-0.5463,-0.5469,-0.5486,-0.5493,-0.5503,-0.5517,-0.5523,-0.5536,-0.555,-0.5561,-0.5569,-0.5581,-0.5591,-0.5595,-0.5593,-0.5592,-0.5591,-0.5592,-0.5596,-0.5595,-0.5603,-0.5603,-0.5603,0,0,-0.5419,-0.5433,-0.5439,-0.546,-0.5472,-0.5482,-0.5491,-0.5502,-0.5509,-0.5525,-0.5537,-0.5547,-0.5563,-0.5573,-0.5579,-0.5582,-0.559,-0.5591,-0.559,-0.5591,-0.5596,-0.5595,-0.5594,-0.5603,-0.5603,-0.5603,0,0,-0.5418,-0.543,-0.5439,-0.545,-0.5466,-0.5477,-0.5479,-0.5498,-0.5505,-0.5517,-0.5528,-0.5537,-0.5557,-0.5568,-0.5575,-0.5575,-0.5583,-0.5579,-0.5573,-0.5577,-0.5577,-0.5576,-0.5575,-0.5575,-0.5579,-0.5579,-0.5579,0,-0.5412,-0.5429,-0.5443,-0.5452,-0.5461,-0.5474,-0.5482,-0.5491,-0.5511,-0.5516,-0.5519,-0.5543,-0.5555,-0.5567,-0.5567,-0.5573,-0.5575,-0.5577,-0.5575,-0.5575,-0.5575,-0.5574,-0.5574,-0.5578,-0.5578,-0.5578,-0.5578,0,-0.542,-0.5431,-0.5436,-0.5453,-0.5462,-0.5471,-0.5485,-0.5492,-0.55,-0.551,-0.5521,-0.5535,-0.5549,-0.5553,-0.5561,-0.5566,-0.5567,-0.5572,-0.5578,-0.5573,-0.5573,-0.5573,-0.5577,-0.5577,-0.5578,-0.5578,0,0,-0.5413,-0.5437,-0.5438,-0.5445,-0.5463,-0.5472,-0.548,-0.5494,-0.5499,-0.5511,-0.5518,-0.5533,-0.5538,-0.5547,-0.5556,-0.5559,-0.5557,-0.5564,-0.5565,-0.5562,-0.5561,-0.5557,-0.5556,-0.5562,-0.5562,-0.5562,-0.556,0,-0.5415,-0.5432,-0.5443,-0.5455,-0.5464,-0.5475,-0.5482,-0.5493,-0.5502,-0.5511,-0.5521,-0.5531,-0.5537,-0.5542,-0.5545,-0.5556,-0.5557,-0.5556,-0.5568,-0.5568,-0.5564,-0.5556,-0.5552,-0.555,-0.556,-0.556,-0.556,0,-0.542,-0.5431,-0.5443,-0.5458,-0.5462,-0.5469,-0.5481,-0.5489,-0.5501,-0.5507,-0.5515,-0.5524,-0.5532,-0.5536,-0.5547,-0.5547,-0.5552,-0.5557,-0.5557,-0.5559,-0.5564,-0.5558,-0.555,-0.5549,-0.556,-0.556,-0.556,0,-0.5413,-0.5431,-0.544,-0.5446,-0.5464,-0.5467,-0.5475,-0.5487,-0.5493,-0.5504,-0.5508,-0.5519,-0.5525,-0.5533,-0.5543,-0.5546,-0.5553,-0.5558,-0.5557,-0.5557,-0.5559,-0.5559,-0.5552,-0.5562,-0.5562,-0.5562,-0.5562,0,-0.5414,-0.5421,-0.5437,-0.5443,-0.545,-0.5462,-0.5469,-0.5477,-0.5487,-0.5494,-0.5504,-0.551,-0.5524,-0.5531,-0.554,-0.5547,-0.555,-0.5554,-0.5556,-0.5553,-0.5553,-0.5557,-0.5558,-0.5562,-0.5562,-0.5562,-0.5562,0,-0.5409,-0.5419,-0.543,-0.5445,-0.5448,-0.5453,-0.5466,-0.5471,-0.5479,-0.5487,-0.549,-0.5503,-0.5512,-0.5524,-0.5536,-0.5542,-0.5548,-0.5551,-0.5544,-0.5545,-0.5544,-0.5543,-0.5539,-0.5538,-0.5549,-0.5549,-0.5549,0,-0.5409,-0.5414,-0.5429,-0.5434,-0.544,-0.5449,-0.5455,-0.5466,-0.5472,-0.5484,-0.5488,-0.5497,-0.5505,-0.5519,-0.5529,-0.5538,-0.5542,-0.554,-0.5544,-0.554,-0.5541,-0.5541,-0.5541,-0.5539,-0.5539,-0.5539,-0.5539,0,-0.5407,-0.5412,-0.542,-0.543,-0.5437,-0.5445,-0.5454,-0.5457,-0.547,-0.5475,-0.5484,-0.5491,-0.5502,-0.5511,-0.5521,-0.5528,-0.5535,-0.5537,-0.5537,-0.5534,-0.553,-0.5531,-0.5541,-0.5537,-0.5537,-0.5538,-0.5538,-0.5538,-0.5404,-0.5409,-0.5419,-0.5428,-0.5435,-0.5442,-0.5447,-0.5455,-0.5463,-0.5473,-0.5479,-0.5487,-0.5497,-0.5511,-0.5517,-0.5523,-0.5526,-0.5527,-0.5527,-0.5527,-0.5525,-0.5528,-0.5525,-0.5525,-0.5525,-0.5525,-0.5525,0,-0.5403,-0.541,-0.5417,-0.5428,-0.5434,-0.5439,-0.5448,-0.5453,-0.546,-0.5468,-0.5475,-0.5484,-0.5492,-0.5502,-0.5511,-0.5513,-0.5517,-0.5515,-0.5515,-0.5516,-0.5523,-0.5522,-0.5512,-0.5512,-0.5512,-0.5512,-0.5512,-0.5512,-0.5403,-0.5411,-0.5416,-0.5426,-0.5432,-0.544,-0.5445,-0.5451,-0.5457,-0.5467,-0.5473,-0.5479,-0.5487,-0.5496,-0.5503,-0.5506,-0.5508,-0.5506,-0.5509,-0.5515,-0.5516,-0.5517,-0.5516,-0.5506,-0.5506,-0.5502,-0.5502,-0.5502]},{"header":{"parameterUnit":"m.s-1","parameterCategory":1,"la1":30.2991,"la2":30.254,"lo1":-89.0895,"lo2":-89.0444,"dy":0.0017,"dx":0.0017,"nx":28,"ny":28,"refTime":"2023-08-29T09:00:00:Z","depth":0,"parameterNumber":3,"parameterNumberName":"V-component_of_WINDS"},"data":[0,0,0,0,0,0,0,0,0,0,0,0,0,0,0,0,0,0,0,0,0,0,0,0,0,0,0,0,0,0,0,0,0,0,0,0,0,0,0,0,0,0,0,0,0,0,0,0,0,0,0,0,0,0,0,0,0,0,-6.1551,-6.1552,0,-6.1636,-6.1637,-6.1638,-6.1575,-6.1572,-6.1569,-6.1567,-6.1648,-6.1652,-6.1657,0,0,0,0,0,0,0,0,0,0,0,0,0,-6.1327,-6.1332,-6.1551,-6.1552,-6.1553,-6.1636,-6.1637,-6.1639,-6.1575,-6.1572,-6.1568,-6.1565,-6.1646,-6.1652,-6.1657,0,0,0,0,0,0,0,0,0,0,0,0,0,-6.142,-6.1333,-6.1551,-6.1532,-6.1531,-6.1636,-6.1637,-6.1639,-6.1576,-6.1572,-6.1568,-6.1564,-6.1644,-6.1651,-6.1658,-6.1785,0,0,-6.168,-6.1683,0,0,0,0,0,0,0,0,-6.1415,-6.1428,-6.1533,-6.1533,-6.1532,-6.1591,-6.1588,-6.1688,-6.1577,-6.1559,-6.1566,-6.1562,-6.1632,-6.1639,-6.1664,-6.1789,-6.1792,-6.168,-6.1685,-6.1688,-6.169,0,0,0,0,0,0,0,-6.1408,-6.1424,-6.1584,-6.1535,-6.1534,-6.1517,-6.1526,-6.1607,-6.1617,-6.156,-6.1555,-6.1567,-6.163,-6.1658,-6.1666,-6.1793,-6.168,-6.1687,-6.1691,-6.1694,-6.2027,-6.2031,0,0,0,0,0,0,-6.1404,-6.1419,-6.1582,-6.1587,-6.1462,-6.1524,-6.1534,-6.1576,-6.1616,-6.1618,-6.157,-6.1563,-6.1648,-6.1658,-6.1668,-6.182,-6.1688,-6.1694,-6.1698,-6.2022,-6.2028,-6.2033,0,0,0,0,0,0,-6.14,-6.142,-6.1578,-6.1502,-6.1521,-6.1533,-6.158,-6.158,-6.1607,-6.1624,-6.1625,-6.1597,-6.1645,-6.1658,-6.1757,-6.1822,-6.1698,-6.1704,-6.2017,-6.2024,-6.203,-6.2124,0,0,0,0,0,0,-6.1394,-6.1418,-6.1468,-6.1504,-6.1525,-6.1667,-6.1584,-6.1585,-6.162,-6.1612,-6.1649,-6.1651,-6.1643,-6.1747,-6.1764,-6.1829,-6.171,-6.2011,-6.202,-6.2028,-6.2115,-6.2133,-6.2148,0,0,0,0,0,-6.1386,-6.1489,-6.147,-6.149,-6.1587,-6.1671,-6.1683,-6.1673,-6.1626,-6.1675,-6.1686,-6.165,-6.1812,-6.1758,-6.1776,-6.1845,-6.2007,-6.2017,-6.2027,-6.2107,-6.2129,-6.2148,0,0,0,0,0,0,-6.1457,-6.1493,-6.1473,-6.1591,-6.1629,-6.166,-6.1721,-6.1697,-6.1747,-6.1737,-6.1721,-6.173,-6.1834,-6.1849,-6.1787,-6.197,-6.1902,-6.1916,-6.1956,-6.1977,-6.1993,-6.1987,-6.1716,0,0,0,0,0,-6.1487,-6.1554,-6.1581,-6.1682,-6.1702,-6.1709,-6.1745,-6.1735,-6.1772,-6.1787,-6.1805,-6.1841,-6.1901,-6.194,-6.1995,-6.2117,-6.2124,-6.2174,-6.219,-6.2204,-6.2216,-6.2282,-6.2305,-6.2067,-6.2067,-6.2066,0,0,-6.1548,-6.1576,-6.1619,-6.1697,-6.1725,-6.1793,-6.1723,-6.1797,-6.1847,-6.1797,-6.1892,-6.1908,-6.1947,-6.2058,-6.2108,-6.2074,-6.2284,-6.2217,-6.2228,-6.2233,-6.2295,-6.2318,-6.2338,-6.2074,-6.2072,-6.2071,0,0,-6.1694,-6.1723,-6.1811,-6.1842,-6.1886,-6.189,-6.1912,-6.1948,-6.1957,-6.2052,-6.2017,-6.2075,-6.2178,-6.2208,-6.2236,-6.2397,-6.2366,-6.2416,-6.2503,-6.2567,-6.2586,-6.2603,-6.266,-6.268,-6.2428,-6.2429,-6.2429,0,-6.1764,-6.1867,-6.1858,-6.1937,-6.1972,-6.1934,-6.2022,-6.2052,-6.2111,-6.2136,-6.2098,-6.2227,-6.2251,-6.2369,-6.2408,-6.2433,-6.2456,-6.2411,-6.2585,-6.2601,-6.2616,-6.267,-6.2692,-6.2434,-6.2434,-6.2433,-6.2433,0,-6.1951,-6.2023,-6.2088,-6.215,-6.2193,-6.2276,-6.2278,-6.2323,-6.2309,-6.2317,-6.2415,-6.2443,-6.2504,-6.2532,-6.2518,-6.2648,-6.2626,-6.2587,-6.2518,-6.2645,-6.2695,-6.2716,-6.2443,-6.244,-6.2439,-6.2437,0,0,-6.2141,-6.22,-6.2224,-6.2252,-6.23,-6.2355,-6.2436,-6.2498,-6.2536,-6.2579,-6.2646,-6.2735,-6.27,-6.2733,-6.2723,-6.278,-6.2906,-6.2733,-6.2734,-6.2764,-6.3051,-6.3079,-6.3103,-6.2886,-6.289,-6.2893,-6.3047,0,-6.229,-6.2434,-6.2429,-6.2563,-6.2629,-6.2595,-6.2666,-6.2702,-6.2713,-6.2769,-6.2779,-6.2843,-6.2792,-6.2811,-6.2867,-6.2879,-6.2963,-6.2868,-6.2946,-6.2949,-6.2937,-6.313,-6.316,-6.3304,-6.3067,-6.307,-6.3073,0,-6.2481,-6.2534,-6.2675,-6.2715,-6.2743,-6.2807,-6.2864,-6.2919,-6.296,-6.2963,-6.3002,-6.2983,-6.3064,-6.2995,-6.3106,-6.3042,-6.3074,-6.3085,-6.309,-6.3096,-6.3018,-6.314,-6.3349,-6.337,-6.3104,-6.3101,-6.3099,0,-6.2606,-6.2712,-6.281,-6.2836,-6.2885,-6.293,-6.2953,-6.2989,-6.3028,-6.3077,-6.3102,-6.316,-6.3191,-6.3236,-6.3233,-6.3183,-6.3346,-6.3276,-6.335,-6.335,-6.3384,-6.3381,-6.3601,-6.3407,-6.3407,-6.3406,-6.3406,0,-6.2771,-6.2858,-6.2867,-6.2928,-6.3024,-6.3019,-6.3114,-6.3131,-6.3165,-6.3227,-6.3201,-6.3259,-6.3252,-6.3311,-6.3309,-6.3402,-6.3416,-6.342,-6.3418,-6.3422,-6.3421,-6.3441,-6.3431,-6.3412,-6.3411,-6.341,-6.3409,0,-6.2925,-6.2935,-6.304,-6.3079,-6.3091,-6.3161,-6.3194,-6.325,-6.326,-6.3339,-6.3357,-6.337,-6.3438,-6.3441,-6.3518,-6.3517,-6.3629,-6.3616,-6.3616,-6.3613,-6.3687,-6.3679,-6.3925,-6.3957,-6.3744,-6.3746,-6.3748,0,-6.3029,-6.3096,-6.3144,-6.3186,-6.3211,-6.3277,-6.3317,-6.3315,-6.3357,-6.341,-6.346,-6.3526,-6.3579,-6.3689,-6.3704,-6.3763,-6.3751,-6.3834,-6.3759,-6.3762,-6.3752,-6.3747,-6.3754,-6.3847,-6.3849,-6.3851,-6.3853,0,-6.3213,-6.3216,-6.3276,-6.3338,-6.3388,-6.3436,-6.3481,-6.3515,-6.3518,-6.3567,-6.3637,-6.3679,-6.3759,-6.3825,-6.3883,-6.3903,-6.3879,-6.3877,-6.3897,-6.39,-6.3897,-6.3899,-6.3654,-6.387,-6.3869,-6.3867,-6.3866,-6.3866,-6.3345,-6.3404,-6.3447,-6.3515,-6.355,-6.3593,-6.3649,-6.3667,-6.3726,-6.3793,-6.3788,-6.3866,-6.3906,-6.3982,-6.4008,-6.4068,-6.4039,-6.4068,-6.4075,-6.4082,-6.409,-6.3889,-6.4078,-6.4078,-6.4077,-6.4077,-6.4077,0,-6.3527,-6.3554,-6.3617,-6.3683,-6.3736,-6.3712,-6.3761,-6.3807,-6.3877,-6.3917,-6.3971,-6.4052,-6.4117,-6.4139,-6.4201,-6.4245,-6.4235,-6.4261,-6.4257,-6.4262,-6.4112,-6.4089,-6.4268,-6.4268,-6.4268,-6.4268,-6.4268,-6.4268,-6.3628,-6.3726,-6.3734,-6.3848,-6.3874,-6.3953,-6.3983,-6.4023,-6.4055,-6.4148,-6.4203,-6.4218,-6.4251,-6.4316,-6.4374,-6.4378,-6.4402,-6.4433,-6.4432,-6.4292,-6.4272,-6.4254,-6.4232,-6.4438,-6.4438,-6.4577,-6.4578,-6.4579]}]]